PLEIADES 1A

Last updated on Wed Sep 09 2026 00:02:45 GMT+0000 (Coordinated Universal Time)

1 38012U 11076F 26251.62303896 .00000478 00000+0 11261-3 0 9994 2 38012 98.1921 325.5785 0001060 95.5407 14.1414 14.58571316784159
UTC large
Height (km)
Speed (km/s)
/
Latitude / Longitude
Inclination (degrees)
Orbital Period (minutes)
Azimuth
Elevation
Range (km)
Doppler Factor

Next 0 passes for location: London (51.5072 / 0.1276)

No passes found over London.
PLEIADES 1A